Temp
81 83 80 77 79 78 77 77 79 82 82 84 81 81 77 83 82 80 81 82 82 83 83 83 83 83 83 83 83 82 82 82 82 82 82 82 82 82 82 82 82 82 81
84 84 81 79 79 81 80 79 82 79 81 84 84 83 81 81 77 77 81 79 81 81 83 83 83 83 83 83 83 83 82 82 82 82 81 81 81 81 81 81 81 81 81
86 84 80 80 75 84 84 83 85 80 77 78 74 75 78 76 77 76 77 77 80 82 83 83 82 82 83 83 83 82 82 82 82 81 81 81 81 81 81 81 81 81 81
87 83 80 81 82 84 85 85 83 81 77 75 73 74 76 77 78 76 77 77 78 80 80 82 82 82 83 83 83 83 82 81 81 81 81 81 81 81 81 80 80 80 80
85 82 80 79 87 85 83 85 85 81 77 74 76 76 75 75 75 78 76 76 77 76 77 79 80 80 83 84 83 83 82 82 81 81 81 80 80 80 80 80 79 79 79
85 83 77 85 87 82 82 86 83 83 79 72 76 73 72 73 76 77 76 77 75 77 76 77 78 79 81 81 79 80 81 81 81 80 80 80 80 80 79 79 79 79 79
89 87 75 87 87 84 84 85 85 82 79 78 74 73 71 74 76 76 76 75 74 77 76 75 75 76 79 80 78 78 80 80 80 80 80 80 79 80 79 78 78 78 78
89 86 84 85 80 76 84 85 84 80 81 81 75 74 71 73 76 77 76 78 77 77 76 77 77 76 77 78 77 79 79 80 80 80 79 79 80 79 78 78 77 77 77
90 83 88 88 87 86 81 84 84 83 77 78 75 75 69 68 74 76 78 76 77 77 78 78 78 78 78 77 77 77 78 79 80 80 78 78 78 78 77 77 77 76 76
90 88 88 88 88 82 83 84 87 83 81 76 79 83 76 79 70 69 77 79 80 81 79 79 78 79 79 74 77 77 77 77 77 78 77 77 77 77 78 77 77 76 76
90 90 85 88 88 85 84 85 84 83 82 77 75 74 79 79 78 71 69 74 78 79 79 78 76 76 77 75 72 74 76 76 76 76 77 78 78 78 78 77 76 76 76
83 87 86 85 86 83 85 85 85 84 83 81 79 78 77 75 75 72 71 73 73 76 79 79 77 75 74 71 79 76 76 75 75 75 76 76 77 77 77 77 77 76 76
83 83 84 85 85 86 86 86 84 83 82 81 81 80 81 78 75 75 75 71 72 76 76 79 77 76 78 71 72 75 75 74 73 73 73 74 75 75 75 75 75 76 76
86 84 85 85 86 86 86 85 84 83 82 81 81 80 79 80 81 79 76 72 69 73 75 75 77 77 76 72 74 76 70 72 72 72 72 72 73 73 73 73 73 73 74
85 78 85 86 87 86 86 84 83 81 82 82 81 80 78 79 80 81 79 78 74 69 71 75 74 77 73 74 74 73 70 72 72 72 72 72 72 72 72 72 71 71 72
91 86 87 88 86 86 85 84 83 83 81 81 81 78 78 78 81 81 80 81 81 76 70 75 77 77 77 78 76 72 72 72 72 72 72 72 72 72 71 71 70 70 70
89 89 88 87 86 85 84 83 83 84 81 80 80 79 78 78 78 79 79 79 78 78 73 76 77 76 76 73 72 73 73 69 70 71 71 71 71 71 70 70 69 69 69
88 88 88 86 85 86 84 83 83 84 80 80 79 79 78 82 77 77 77 77 78 77 77 72 74 74 74 74 71 71 75 79 73 72 70 70 70 70 69 68 68 67 67
87 88 86 85 85 85 85 85 83 83 83 82 81 79 79 78 77 77 76 76 76 78 77 75 72 74 73 74 72 72 72 73 80 72 69 69 69 68 68 67 67 65 64
88 87 86 85 85 85 85 85 84 83 82 80 74 72 75 77 77 77 77 76 76 75 75 75 74 74 73 73 72 69 69 71 70 77 74 70 68 68 68 67 67 65 63
88 86 86 86 86 86 87 84 85 82 68 68 68 68 69 70 72 75 78 75 74 74 74 73 73 74 73 72 70 71 69 69 70 70 68 67 65 64 64 67 68 68 66
85 85 85 85 84 88 81 77 80 69 68 67 67 67 67 70 70 70 72 74 74 73 71 73 74 72 72 72 72 71 70 67 65 72 68 66 68 65 67 65 69 67 66
83 82 82 82 82 82 75 71 71 69 67 67 68 67 67 70 70 71 70 69 70 70 71 72 72 74 72 74 73 70 69 69 67 70 69 66 69 67 70 70 66 66 66
86 85 85 85 83 83 73 67 70 69 68 67 68 68 68 68 69 70 71 70 71 72 72 75 72 74 76 75 74 73 70 71 70 71 70 63 67 66 66 65 65 66 66
86 85 85 84 83 83 70 65 68 70 70 70 69 69 69 70 68 67 70 70 68 70 74 70 72 71 72 74 75 73 69 67 66 67 68 66 66 65 66 62 63 65 64
84 86 84 83 80 83 64 64 69 75 71 72 72 70 66 69 66 64 70 70 68 70 72 70 71 70 69 72 72 72 70 66 65 65 67 65 65 65 63 66 64 62 62
MSLP
1017.23 1017.00 1017.09 1017.30 1017.77 1017.69 1018.26 1018.27 1018.15 1018.06 1018.21 1018.33 1018.62 1018.65 1019.25 1019.21 1019.66 1020.20 1020.48 1020.70 1020.87 1021.16 1021.47 1021.80 1021.95 1022.18 1022.39 1022.56 1022.73 1022.97 1023.16 1023.36 1023.53 1023.65 1023.73 1023.83 1024.01 1024.10 1024.22 1024.25 1024.30 1024.38 1024.57
1016.86 1016.64 1016.92 1016.91 1017.50 1017.40 1017.77 1017.89 1017.61 1017.76 1018.09 1018.32 1018.42 1018.64 1018.79 1018.92 1019.71 1020.37 1020.46 1020.78 1020.88 1021.09 1021.35 1021.68 1021.89 1022.10 1022.29 1022.40 1022.55 1022.76 1023.01 1023.20 1023.41 1023.58 1023.70 1023.80 1023.95 1024.06 1024.12 1024.22 1024.28 1024.32 1024.47
1017.28 1016.83 1016.85 1016.88 1017.26 1016.57 1016.82 1017.06 1017.00 1017.62 1018.45 1018.71 1019.36 1019.11 1019.04 1019.26 1020.04 1020.41 1020.42 1020.74 1020.97 1021.18 1021.32 1021.60 1021.86 1022.07 1022.24 1022.39 1022.57 1022.74 1022.86 1023.04 1023.19 1023.37 1023.60 1023.72 1023.86 1023.97 1024.10 1024.12 1024.15 1024.30 1024.36
1017.27 1017.32 1017.00 1016.72 1016.40 1016.09 1016.22 1016.47 1016.85 1017.29 1018.31 1018.81 1018.92 1020.21 1019.41 1019.21 1019.52 1020.21 1020.44 1020.68 1020.86 1021.14 1021.50 1021.61 1021.86 1022.04 1022.16 1022.33 1022.50 1022.68 1022.82 1022.94 1023.04 1023.18 1023.35 1023.52 1023.62 1023.73 1023.88 1024.02 1024.07 1024.18 1024.20
1017.06 1017.13 1017.06 1016.54 1015.65 1015.74 1016.11 1016.49 1016.92 1017.52 1018.13 1018.92 1019.13 1019.47 1019.35 1019.50 1019.92 1020.20 1020.53 1020.64 1020.97 1021.16 1021.35 1021.57 1021.82 1022.03 1022.06 1022.08 1022.30 1022.51 1022.68 1022.70 1022.85 1023.06 1023.19 1023.29 1023.40 1023.52 1023.68 1023.79 1023.92 1024.01 1024.09
1016.73 1017.03 1016.94 1015.97 1015.63 1015.89 1015.98 1016.62 1017.09 1017.59 1017.96 1018.48 1018.86 1019.66 1019.34 1020.03 1020.04 1020.10 1020.43 1020.58 1020.88 1020.98 1021.28 1021.50 1021.79 1021.99 1022.11 1022.21 1022.47 1022.67 1022.63 1022.60 1022.73 1022.86 1022.96 1023.03 1023.16 1023.30 1023.49 1023.63 1023.69 1023.80 1023.94
1016.28 1016.38 1016.94 1015.76 1015.58 1016.36 1016.05 1016.56 1017.10 1017.42 1017.90 1018.35 1019.08 1019.83 1020.32 1020.27 1019.99 1020.10 1020.29 1020.54 1020.84 1020.90 1021.13 1021.27 1021.44 1021.73 1022.08 1022.38 1022.64 1022.64 1022.59 1022.62 1022.67 1022.78 1022.78 1022.65 1022.83 1023.01 1023.25 1023.39 1023.52 1023.66 1023.75
1016.17 1016.33 1016.00 1015.98 1016.25 1016.81 1016.42 1016.64 1017.05 1017.58 1017.73 1018.20 1019.06 1019.46 1020.18 1020.54 1020.19 1020.13 1020.25 1020.48 1020.52 1020.78 1021.02 1021.21 1021.42 1021.61 1021.82 1022.17 1022.54 1022.69 1022.72 1022.73 1022.76 1022.84 1022.83 1022.72 1022.75 1022.97 1023.21 1023.39 1023.46 1023.51 1023.58
1015.86 1016.02 1015.56 1015.52 1015.79 1016.18 1016.56 1016.91 1016.98 1017.32 1017.90 1018.32 1018.19 1018.98 1019.46 1019.76 1019.94 1020.09 1020.23 1020.26 1020.58 1020.74 1020.76 1020.97 1021.19 1021.48 1021.75 1022.04 1022.45 1022.72 1022.86 1022.87 1022.83 1022.84 1022.99 1023.05 1023.06 1023.21 1023.32 1023.38 1023.41 1023.40 1023.36
1015.46 1015.57 1015.45 1015.58 1015.82 1016.53 1016.71 1016.82 1016.74 1017.20 1017.53 1018.07 1018.35 1018.18 1018.18 1018.66 1019.47 1020.31 1019.89 1019.84 1020.14 1020.27 1020.58 1020.74 1021.11 1021.33 1021.80 1022.34 1022.47 1022.74 1022.92 1022.98 1023.01 1023.04 1023.14 1023.23 1023.29 1023.33 1023.35 1023.34 1023.32 1023.28 1023.14
1014.88 1014.96 1015.24 1015.63 1016.11 1016.51 1016.61 1016.76 1016.98 1017.18 1017.62 1017.83 1017.88 1018.43 1018.18 1018.31 1018.77 1019.51 1019.98 1020.02 1019.98 1020.06 1020.30 1020.52 1021.09 1021.47 1021.62 1022.04 1022.64 1022.93 1023.04 1023.09 1023.16 1023.23 1023.27 1023.29 1023.37 1023.45 1023.44 1023.40 1023.33 1023.14 1022.85
1014.78 1014.42 1014.97 1015.63 1016.02 1016.47 1016.56 1016.72 1017.03 1017.30 1017.50 1017.85 1018.00 1018.01 1018.28 1018.29 1018.89 1019.36 1019.70 1019.92 1019.88 1019.85 1019.96 1020.17 1020.74 1021.22 1021.61 1022.09 1022.36 1022.89 1023.10 1023.17 1023.24 1023.35 1023.44 1023.54 1023.62 1023.66 1023.70 1023.66 1023.46 1023.13 1022.80
1014.23 1014.70 1015.19 1015.43 1015.82 1015.95 1016.22 1016.52 1016.96 1017.27 1017.42 1017.52 1017.48 1017.55 1017.65 1017.74 1018.12 1018.36 1018.89 1019.72 1019.90 1019.87 1019.98 1020.01 1020.21 1020.78 1021.25 1022.00 1022.52 1022.85 1023.09 1023.27 1023.38 1023.52 1023.64 1023.76 1023.85 1023.94 1023.91 1023.80 1023.64 1023.38 1023.00
1014.80 1015.96 1016.46 1015.71 1014.95 1015.66 1016.16 1016.47 1017.05 1017.30 1017.33 1017.51 1017.61 1017.54 1017.55 1017.36 1017.46 1017.76 1018.20 1018.95 1019.70 1019.86 1019.78 1019.83 1020.02 1020.25 1020.83 1021.60 1022.22 1022.73 1023.11 1023.28 1023.50 1023.71 1023.81 1023.84 1023.92 1023.96 1023.95 1023.94 1023.88 1023.72 1023.40
1015.38 1015.10 1015.54 1016.08 1014.72 1015.28 1015.94 1016.52 1016.93 1017.15 1017.33 1017.50 1017.55 1017.63 1017.66 1017.45 1017.18 1017.18 1017.79 1018.15 1018.60 1019.21 1019.55 1019.51 1019.86 1019.97 1020.68 1021.23 1021.78 1022.31 1022.81 1023.16 1023.42 1023.65 1023.81 1023.85 1023.95 1024.03 1024.07 1024.09 1024.02 1023.88 1023.68
1014.22 1015.26 1015.46 1014.73 1014.88 1015.54 1016.08 1016.45 1016.60 1016.77 1016.97 1017.27 1017.39 1017.46 1017.50 1017.35 1017.14 1016.87 1017.11 1017.60 1017.83 1018.04 1018.67 1018.80 1019.00 1019.54 1020.22 1020.83 1021.41 1021.82 1022.26 1022.62 1022.94 1023.28 1023.61 1023.79 1023.89 1024.01 1024.10 1024.18 1024.11 1023.97 1023.78
1013.86 1013.85 1014.08 1014.56 1015.07 1015.46 1015.81 1016.15 1016.32 1016.53 1016.76 1017.04 1017.03 1017.05 1017.04 1017.03 1016.94 1016.70 1016.73 1016.73 1017.08 1017.30 1017.86 1018.10 1018.70 1019.28 1019.86 1020.52 1021.13 1021.39 1021.95 1022.32 1022.59 1022.88 1023.24 1023.52 1023.79 1023.98 1024.08 1024.13 1024.17 1024.13 1023.91
1014.01 1014.16 1014.34 1014.72 1015.05 1015.18 1015.41 1015.75 1016.04 1016.20 1016.38 1016.54 1016.76 1016.86 1016.93 1017.06 1017.02 1016.88 1016.98 1016.85 1016.82 1016.87 1017.13 1017.98 1018.74 1019.40 1019.87 1020.24 1020.91 1021.29 1021.56 1021.56 1021.79 1022.22 1022.79 1023.25 1023.55 1023.88 1023.99 1024.18 1024.17 1024.11 1024.01
1013.74 1013.97 1014.22 1014.46 1014.75 1014.87 1015.01 1015.24 1015.44 1015.54 1015.73 1016.16 1016.64 1016.90 1016.96 1017.10 1017.06 1016.92 1016.83 1016.85 1016.78 1016.92 1016.99 1017.44 1018.56 1019.04 1019.57 1020.12 1020.92 1021.08 1021.01 1020.91 1020.75 1021.69 1022.49 1023.01 1023.30 1023.70 1023.96 1024.04 1024.12 1024.20 1024.15
1013.31 1013.50 1013.71 1013.92 1014.21 1014.44 1014.54 1014.59 1014.62 1014.89 1015.37 1017.04 1018.21 1018.31 1017.83 1017.40 1017.05 1016.92 1016.90 1016.64 1016.62 1016.77 1016.93 1017.25 1017.90 1018.69 1019.10 1019.54 1020.02 1020.80 1021.02 1020.87 1021.33 1021.45 1021.92 1022.38 1022.90 1023.26 1023.68 1023.84 1023.88 1024.12 1024.13
1013.07 1013.25 1013.40 1013.46 1013.60 1013.75 1013.72 1013.70 1013.84 1014.43 1017.19 1017.45 1017.97 1018.18 1018.94 1017.65 1017.45 1016.72 1016.29 1016.78 1016.62 1016.53 1016.49 1016.96 1017.45 1017.79 1018.44 1019.09 1019.46 1019.90 1020.38 1020.50 1020.63 1020.88 1021.54 1022.06 1022.58 1022.92 1023.19 1023.58 1023.73 1023.76 1023.78
1013.00 1013.13 1013.12 1013.10 1013.18 1013.17 1012.86 1012.91 1013.06 1015.16 1015.92 1015.44 1015.46 1016.36 1016.09 1016.83 1016.74 1016.14 1016.42 1016.58 1016.24 1016.31 1016.28 1016.23 1016.67 1017.07 1017.35 1018.04 1018.79 1019.38 1019.92 1020.24 1020.37 1020.31 1020.98 1021.60 1021.84 1022.43 1022.62 1023.09 1023.25 1023.42 1023.39
1012.81 1012.76 1012.80 1012.77 1012.79 1012.75 1012.68 1012.55 1013.20 1014.16 1015.28 1015.67 1014.04 1014.12 1014.42 1015.11 1015.86 1016.67 1016.27 1016.62 1016.26 1016.24 1016.36 1016.19 1016.50 1016.46 1016.52 1016.90 1017.66 1018.53 1019.01 1019.39 1019.62 1019.47 1019.94 1020.75 1020.94 1021.32 1021.51 1022.18 1022.78 1023.06 1023.02
1012.03 1012.17 1012.23 1012.18 1012.18 1012.21 1012.13 1012.50 1013.18 1014.20 1013.94 1013.90 1013.84 1013.49 1014.33 1014.95 1015.12 1015.84 1015.90 1015.88 1015.82 1015.87 1015.70 1015.91 1016.22 1016.54 1016.32 1016.26 1016.61 1017.18 1018.04 1018.70 1019.03 1019.08 1019.58 1020.71 1020.59 1020.87 1021.23 1021.83 1022.22 1022.48 1022.58
1011.92 1011.90 1011.75 1011.64 1011.67 1011.66 1011.78 1012.26 1012.96 1013.52 1013.76 1013.85 1013.65 1013.54 1013.96 1014.28 1014.54 1015.23 1015.59 1015.54 1015.96 1015.91 1015.58 1015.69 1015.96 1016.01 1016.00 1015.90 1016.23 1017.04 1017.83 1018.47 1019.11 1019.28 1019.52 1020.14 1020.57 1020.82 1021.12 1021.78 1021.83 1021.96 1022.13
1011.83 1011.75 1011.62 1011.42 1011.36 1011.24 1011.42 1011.78 1012.36 1012.78 1013.04 1013.12 1013.28 1013.51 1013.86 1013.90 1014.17 1015.01 1014.88 1015.15 1015.38 1015.19 1015.30 1015.46 1015.74 1015.76 1015.86 1015.83 1016.03 1016.50 1017.30 1018.12 1018.59 1019.02 1018.90 1019.49 1020.11 1020.44 1020.96 1021.03 1021.35 1021.79 1022.01
Wind_Speed
4 3 5 4 4 5 2 5 5 6 4 3 6 10 8 9 7 5 5 15 12 10 11 12 13 11 10 10 9 9 8 7 5 5 5 5 5 4 4 4 4 4 4
1 4 2 5 2 4 5 6 4 2 1 1 5 8 11 5 8 3 6 6 13 9 10 11 10 12 12 12 11 9 9 8 7 6 6 6 5 5 6 5 5 6 5
1 4 3 3 4 5 10 7 5 5 5 3 7 7 3 10 7 7 6 4 6 9 10 10 9 9 10 9 9 9 8 8 7 8 7 5 5 6 6 7 7 6 6
1 5 3 1 5 4 5 5 4 3 7 8 8 6 3 6 6 7 5 3 3 5 6 9 7 8 10 10 9 8 8 8 7 6 7 7 7 8 7 7 7 7 7
7 6 3 6 4 2 4 2 2 4 5 4 6 7 5 5 6 4 5 4 4 4 2 9 7 8 10 10 9 6 4 5 7 7 7 7 8 8 8 7 8 8 7
7 4 5 4 1 1 5 3 6 3 4 4 6 6 3 3 3 3 6 4 2 3 4 5 5 6 10 8 6 5 4 4 3 5 6 7 8 7 6 6 6 6 7
4 2 3 4 1 2 5 4 2 5 4 3 5 6 3 1 5 5 5 5 5 4 5 5 4 3 4 8 3 4 6 4 4 2 4 10 10 7 4 3 3 5 6
4 2 5 1 9 7 3 3 2 1 2 5 4 4 4 2 1 4 5 6 7 5 5 6 6 6 5 5 6 6 4 4 4 3 3 4 3 2 2 2 2 4 5
6 8 2 2 3 2 3 2 2 2 1 3 7 4 3 2 3 1 5 6 8 6 5 5 6 6 6 6 8 6 6 4 4 5 7 7 7 7 5 3 3 5 6
5 4 3 3 1 3 4 2 2 1 1 2 3 4 4 6 3 1 2 4 6 6 6 4 5 5 7 5 10 10 8 6 6 6 6 6 6 5 4 4 4 7 9
4 5 6 4 1 1 4 4 4 2 2 1 2 2 1 2 5 4 4 3 3 5 4 6 6 5 5 7 6 6 8 7 6 6 6 7 7 7 6 6 6 7 9
3 6 8 5 3 3 4 2 2 2 2 1 1 2 4 4 5 3 3 4 4 4 4 5 6 5 5 6 9 10 8 7 7 6 7 8 8 8 8 9 9 9 10
7 6 6 7 5 3 2 2 3 3 3 3 2 3 1 4 4 4 5 4 4 2 3 4 6 6 6 6 6 10 10 9 8 8 7 7 7 8 9 9 10 12 13
7 6 6 8 9 6 4 4 2 4 4 3 4 3 4 4 3 4 5 6 3 3 3 5 4 5 7 7 10 14 6 9 9 8 7 6 6 7 7 8 10 12 14
8 14 8 7 6 7 5 5 3 5 4 2 3 3 3 5 4 1 4 6 6 5 7 6 4 7 6 8 11 8 8 10 9 8 6 5 4 4 5 6 7 8 11
5 11 8 5 6 5 5 5 5 6 5 3 5 6 5 4 5 1 0 5 7 4 4 4 4 9 10 8 13 7 10 14 12 10 8 6 4 2 2 5 7 8 7
4 3 4 4 6 7 7 7 6 2 6 6 6 6 7 6 4 3 4 3 2 2 4 2 3 5 5 9 7 5 10 7 7 13 11 9 7 4 2 4 5 7 9
5 5 4 5 6 6 6 8 8 7 10 9 7 6 6 5 6 4 4 4 1 3 3 7 6 5 4 6 5 7 8 9 9 15 13 11 9 7 6 4 4 5 8
7 6 7 6 7 8 8 9 10 10 9 8 6 6 5 5 5 4 5 4 3 2 1 6 8 5 3 5 5 4 4 5 5 16 12 11 10 9 8 7 5 4 4
4 5 6 7 9 9 10 10 12 11 9 6 15 16 11 7 6 6 5 6 3 3 4 3 8 9 9 7 6 5 4 3 5 9 11 11 12 12 11 9 8 6 4
4 6 7 8 9 10 10 12 12 8 15 13 13 15 16 12 20 11 5 6 5 4 4 4 3 7 8 8 9 6 5 5 4 4 5 6 6 5 6 9 8 9 6
6 7 8 9 10 9 13 17 15 14 12 10 9 5 17 21 14 12 10 5 2 5 6 4 5 4 9 10 8 5 5 3 4 6 5 5 7 6 6 6 11 11 8
5 7 8 9 11 11 14 11 10 12 7 7 9 12 15 7 9 6 9 6 5 6 5 1 3 3 5 12 11 8 5 5 5 4 5 3 6 6 8 8 13 11 9
4 4 5 6 6 7 12 5 15 15 13 15 11 12 13 7 8 8 8 6 7 8 7 5 4 5 5 7 11 9 7 4 3 4 5 3 3 3 5 7 15 12 11
3 4 5 6 7 7 2 11 12 12 14 14 6 4 7 8 8 11 8 8 7 7 7 8 6 5 6 11 8 6 4 5 3 3 3 5 3 3 5 4 5 12 12
5 4 5 6 7 6 10 14 13 6 8 7 7 5 9 9 11 15 11 9 8 8 6 6 5 2 7 9 12 7 5 5 4 3 5 5 3 4 2 4 5 5 5
Wind_Direction
152 221 151 199 205 204 109 268 238 230 210 192 185 179 192 232 134 172 147 155 155 162 169 180 178 179 179 183 185 182 182 185 193 194 200 185 189 184 195 196 197 198 199
175 259 194 206 254 178 165 216 169 88 300 215 247 168 193 116 105 144 145 155 156 167 170 183 181 184 184 190 189 188 188 191 194 209 203 207 203 203 209 213 221 218 213
283 319 312 76 203 200 165 196 176 162 101 314 18 340 102 90 134 137 131 141 145 169 174 177 186 193 194 198 196 195 193 195 205 208 206 226 229 219 225 225 232 234 233
259 280 311 239 212 200 197 171 161 209 164 157 149 225 239 127 118 125 132 115 138 155 180 183 186 192 200 198 196 197 200 207 215 224 224 214 231 225 224 238 245 250 247
219 247 171 252 266 300 147 92 58 58 79 61 152 183 158 135 105 123 123 136 165 145 205 187 197 194 188 191 192 165 186 222 210 223 228 230 235 236 239 245 249 245 254
220 194 258 210 259 62 56 90 83 108 122 151 106 98 57 119 140 190 152 162 155 193 194 205 183 198 204 157 154 180 206 200 206 236 250 245 235 234 248 257 266 274 272
213 139 321 240 359 39 112 89 131 94 87 91 93 92 96 155 179 182 155 159 181 194 177 222 173 179 183 173 190 213 214 173 170 210 268 243 223 217 223 232 276 296 286
226 298 191 270 118 213 100 83 63 40 83 147 104 108 118 139 138 156 170 175 172 176 185 183 180 176 169 165 145 136 131 138 141 125 78 68 147 129 113 82 15 339 328
190 151 174 62 9 27 106 204 157 119 212 179 149 148 150 145 125 115 186 179 161 172 150 155 149 163 143 116 142 132 127 122 130 116 90 80 87 90 80 49 7 335 313
175 153 130 101 359 14 145 175 195 5 235 59 232 171 161 157 139 147 4 109 163 131 142 127 92 75 133 112 86 120 124 111 103 101 103 98 98 93 72 36 1 338 315
177 170 139 140 243 328 91 47 56 353 14 47 299 114 148 154 115 141 157 178 152 132 158 136 144 161 116 129 118 121 123 120 116 113 114 110 98 86 70 48 21 354 354
322 195 134 138 177 255 142 157 129 298 310 343 343 171 208 165 176 147 146 183 172 169 156 134 132 143 111 91 113 134 136 133 126 119 106 105 97 81 65 50 37 21 14
195 165 146 167 169 177 192 154 160 271 211 267 305 308 289 217 168 163 152 201 169 148 157 154 145 139 141 121 136 138 142 141 133 122 118 114 104 82 64 49 36 29 24
83 76 197 200 165 158 201 170 201 217 202 203 270 289 315 308 182 164 147 159 129 206 213 167 157 154 136 138 150 148 146 148 147 145 143 125 96 79 63 46 35 27 23
137 168 193 214 136 146 175 174 217 207 132 215 223 252 266 284 295 75 154 171 159 169 215 172 153 157 120 135 157 165 151 162 156 157 158 137 106 74 49 36 30 28 26
165 158 174 167 144 164 189 192 215 209 171 199 230 187 219 264 275 308 247 185 202 190 198 182 182 148 154 153 174 167 165 165 171 177 180 174 160 136 46 21 15 12 16
287 170 163 192 180 181 193 197 228 265 182 202 252 177 202 246 271 203 231 253 268 205 145 136 129 148 145 152 170 170 158 168 180 187 187 185 180 181 116 61 44 29 27
225 237 198 206 230 208 197 201 205 228 194 204 221 238 208 227 252 287 297 250 260 1 113 150 137 140 138 108 166 158 173 192 183 188 185 185 179 178 155 127 86 52 40
209 217 210 215 221 231 223 213 210 217 232 204 206 220 224 228 247 235 223 267 230 239 208 132 148 155 151 151 162 212 227 264 197 160 169 180 177 172 167 165 139 99 66
222 220 220 216 220 231 232 229 221 219 216 8 11 355 334 298 236 234 244 228 231 244 213 173 160 170 170 176 164 177 230 237 148 168 174 169 172 175 182 175 161 164 128
231 224 236 236 235 227 232 234 232 224 92 96 59 15 313 293 303 286 191 232 218 227 192 189 193 174 174 172 181 181 189 201 211 156 162 163 169 172 181 181 187 176 137
251 252 250 246 244 242 241 226 227 130 147 139 96 121 280 252 241 269 281 216 217 215 224 174 201 191 183 171 174 184 188 181 205 168 153 199 166 189 179 180 191 170 146
264 267 269 267 266 264 265 289 137 145 157 269 178 195 223 234 222 212 223 248 274 288 277 278 259 232 169 172 168 183 190 198 196 192 144 217 161 188 176 161 163 170 154
235 239 244 248 254 255 254 177 156 173 196 201 212 205 217 212 197 211 210 201 223 232 229 220 212 273 292 171 168 172 173 171 156 137 132 189 170 186 111 156 173 175 180
306 286 265 261 255 256 24 158 162 184 206 219 235 214 214 204 192 202 209 216 203 234 238 242 221 278 265 157 152 135 155 148 184 189 178 140 193 184 146 170 182 191 189
287 342 313 296 291 263 162 172 184 182 219 238 234 210 209 204 197 198 205 213 218 219 205 192 196 208 202 171 160 153 159 169 173 210 180 147 176 159 184 170 174 180 201